Regional Weather Roundup
Issued by NWS

Home | Current Version | Previous Version | Text Only | Print | Product List | Glossary Off
Versions: 1 2 3 4 5 6 7 8 9 10 11 12 13 14 15 16 17 18 19 20 21 22 23 24 25 26 27 28 29 30 31 32 33 34 35 36 37 38 39 40 41 42 43 44 45 46 47 48 49 50

000
ASUS43 KLMK 061410
RWRKY
KENTUCKY REGIONAL WEATHER ROUNDUP
NATIONAL WEATHER SERVICE LOUISVILLE KY
900 AM EST SAT FEB 06 2016

NOTE "FAIR" INDICATES FEW OR NO CLOUDS BELOW 12,000 FEET
WITH NO SIGNIFICANT WEATHER AND/OR OBSTRUCTIONS TO VISIBILITY.

KYZ001>023-026-027-061>063-070>075-061500-
WESTERN AND SOUTH CENTRAL KENTUCKY

CITY           SKY/WX    TMP DP  RH WIND       PRES   REMARKS
PADUCAH        SUNNY     35  24  64 SW6       30.35R WCI  30
HENDERSON      MOSUNNY   30  25  80 S5        30.35S WCI  25
OWENSBORO      PTSUNNY   31  27  85 S7        30.36S WCI  24
HOPKINSVILLE   SUNNY     32  23  70 S1        30.37R
BOWLING GREEN  SUNNY     30  25  81 CALM      30.39S
GLASGOW        SUNNY     32  22  67 CALM      30.38S
$$

KYZ024-025-028>034-038-045-046-053-061500-
NORTH CENTRAL KENTUCKY

CITY           SKY/WX    TMP DP  RH WIND       PRES   REMARKS
LOUISVILLE/SDF MOSUNNY   31  24  75 CALM      30.37R
LOUISVILLE/LOU SUNNY     29  25  85 CALM      30.37R
FORT KNOX      MOSUNNY   30  22  70 S5        30.34R WCI  26
$$

KYZ035>037-039>044-047>052-055>060-089>105-061500-
NORTHEAST KENTUCKY

CITY           SKY/WX    TMP DP  RH WIND       PRES   REMARKS
LEXINGTON      SUNNY     31  20  63 S5        30.35R WCI  26
COVINGTON      MOSUNNY   27  25  92 CALM      30.34S FOG
FRANKFORT      SUNNY     29  20  69 CALM      30.35R
$$

KYZ054-064>069-076>088-106>120-061500-
SOUTHEAST KENTUCKY

CITY           SKY/WX    TMP DP  RH WIND       PRES   REMARKS
JACKSON        MOSUNNY   33  17  51 S3        30.36R
LONDON         SUNNY     28  21  75 CALM      30.38R
SOMERSET       SUNNY     30  21  69 CALM      30.41R
MIDDLESBORO    SUNNY     25  23  92 CALM      30.42R
MONTICELLO     SUNNY     31  23  72 NW9       30.41R WCI  23
$$




USA.gov is the U.S. government's official web portal to all federal, state and local government web resources and services.